Weather History for KJAN - April, 2013

Change the Weather History Date:

Wednesday, April 10, 2013

  Actual Average Record
Temperature  
Mean Temperature 77 °F 63 °F  
Max Temperature 84 °F 75 °F 89 °F (1999)
Min Temperature 70 °F 51 °F 34 °F (1914)
Degree Days  
Heating Degree Days 0 5  
Month to date heating degree days 50 54  
Since 1 July heating degree days 2193 2324  
Cooling Degree Days 12 2  
Month to date cooling degree days 30 20  
Year to date cooling degree days 47 57  
Growing Degree Days 27 (Base 50)    
Moisture  
Dew Point 65 °F    
Average Humidity 68    
Maximum Humidity 84    
Minimum Humidity 51    
Precipitation  
Precipitation 0.00 in 0.18 in 1.65 in (1919)
Month to date precipitation 0.41 1.78  
Year to date precipitation 23.44 16.55  
Sea Level Pressure  
Sea Level Pressure 29.89 in    
Wind  
Wind Speed 15 mph (SSE)    
Max Wind Speed 23 mph    
Max Gust Speed 32 mph    
Visibility 10 miles    
Events      
T = Trace of Precipitation, MM = Missing Value Source: NWS Daily Summary

Daily Weather History Graph

Daily Weather History Graph

Search for Another Location

Airport or City:

Trip Planner

Search our weather history database for the weather conditions in past years. The results will help you decide how hot, cold, wet, or windy it might be!

Date:

Astronomy

Apr. 10, 2013 Rise Set
Actual Time 6:36 AM CDT 7:26 PM CDT
Civil Twilight 6:11 AM CDT 7:51 PM CDT
Nautical Twilight 5:42 AM CDT 8:21 PM CDT
Astronomical Twilight 5:12 AM CDT 8:51 PM CDT
Moon 6:34 AM CDT (4/10) 7:58 PM CDT (4/10)
Length of Visible Light 13h 39m
Length of Day
12h 49m
New Moon, 0% of the Moon is Illuminated
Apr 10
New Moon
Apr 18
First Quarter
Apr 25
Full
May 2
Last Quarter
May 9
New

Hourly Weather History & Observations

Time (CDT) Temp. Heat Index Dew Point Humidity Pressure Visibility Wind Dir Wind Speed Gust Speed Precip Events Conditions
12:54 AM 73.0 °F - 66.0 °F 79% 29.95 in 10.0 mi SSE 13.8 mph - N/A   Overcast
1:54 AM 73.0 °F - 66.0 °F 79% 29.93 in 10.0 mi SSE 12.7 mph 19.6 mph N/A   Overcast
2:54 AM 72.0 °F - 66.0 °F 81% 29.92 in 9.0 mi SE 9.2 mph - N/A   Overcast
3:11 AM 71.6 °F - 66.2 °F 83% 29.92 in 9.0 mi SE 9.2 mph - N/A   Overcast
3:54 AM 71.1 °F - 66.0 °F 84% 29.90 in 10.0 mi SE 13.8 mph - N/A   Overcast
4:03 AM 71.6 °F - 66.2 °F 83% 29.92 in 10.0 mi SSE 10.4 mph - N/A   Overcast
4:54 AM 71.1 °F - 66.0 °F 84% 29.90 in 9.0 mi SSE 8.1 mph - N/A   Overcast
5:54 AM 71.1 °F - 64.9 °F 81% 29.89 in 10.0 mi SE 11.5 mph - N/A   Overcast
6:54 AM 70.0 °F - 64.9 °F 84% 29.91 in 9.0 mi SE 9.2 mph - N/A   Overcast
7:54 AM 71.1 °F - 64.9 °F 81% 29.91 in 9.0 mi SE 15.0 mph - N/A   Mostly Cloudy
8:18 AM 71.6 °F - 64.4 °F 78% 29.93 in 10.0 mi SSE 11.5 mph - N/A   Mostly Cloudy
8:54 AM 72.0 °F - 64.9 °F 78% 29.93 in 9.0 mi SSE 15.0 mph 19.6 mph N/A   Mostly Cloudy
9:39 AM 73.4 °F - 64.4 °F 73% 29.95 in 10.0 mi SSE 10.4 mph - N/A   Scattered Clouds
9:54 AM 75.0 °F - 64.9 °F 71% 29.95 in 10.0 mi SSE 12.7 mph - N/A   Partly Cloudy
10:41 AM 77.0 °F - 66.2 °F 69% 29.97 in 10.0 mi SSE 12.7 mph - N/A   Overcast
10:54 AM 78.1 °F - 64.9 °F 64% 29.95 in 10.0 mi South 18.4 mph 26.5 mph N/A   Mostly Cloudy
11:54 AM 78.8 °F - 64.4 °F 61% 29.97 in 10.0 mi SSE 12.7 mph 20.7 mph N/A   Overcast
12:54 PM 78.1 °F - 66.0 °F 66% 29.95 in 10.0 mi SSE 16.1 mph 20.7 mph N/A   Mostly Cloudy
1:54 PM 80.1 °F 82.1 °F 66.0 °F 62% 29.92 in 10.0 mi ESE 12.7 mph 17.3 mph N/A   Mostly Cloudy
2:54 PM 84.0 °F 85.8 °F 64.9 °F 53% 29.88 in 10.0 mi SSE 18.4 mph 24.2 mph N/A   Partly Cloudy
3:54 PM 82.9 °F 85.0 °F 66.0 °F 56% 29.86 in 10.0 mi SSE 17.3 mph 26.5 mph N/A   Mostly Cloudy
4:54 PM 82.0 °F 83.8 °F 64.9 °F 56% 29.83 in 10.0 mi SSE 17.3 mph 24.2 mph N/A   Scattered Clouds
5:54 PM 80.1 °F 82.1 °F 66.0 °F 62% 29.82 in 10.0 mi SE 15.0 mph 24.2 mph N/A   Mostly Cloudy
6:54 PM 78.1 °F - 64.9 °F 64% 29.81 in 10.0 mi SSE 16.1 mph 24.2 mph N/A   Partly Cloudy
7:54 PM 75.9 °F - 64.9 °F 69% 29.79 in 10.0 mi SSE 18.4 mph - N/A   Clear
8:54 PM 73.9 °F - 64.9 °F 73% 29.81 in 10.0 mi SSE 18.4 mph 24.2 mph N/A   Partly Cloudy
9:54 PM 73.0 °F - 64.9 °F 76% 29.81 in 10.0 mi South 17.3 mph - N/A   Partly Cloudy
10:54 PM 72.0 °F - 64.9 °F 78% 29.80 in 10.0 mi SSE 15.0 mph 25.3 mph N/A   Clear
11:38 PM 71.6 °F - 64.4 °F 78% 29.80 in 10.0 mi SSE 19.6 mph 28.8 mph N/A   Mostly Cloudy
11:54 PM 72.0 °F - 64.9 °F 78% 29.78 in 10.0 mi SSE 15.0 mph 24.2 mph N/A   Mostly Cloudy